Precipitable_Water
0.57 0.56 0.61 0.61 0.62 0.62 0.60 0.60 0.60 0.59 0.56 0.52 0.46 0.46 0.45 0.39 0.25 0.21 0.21 0.32 0.31 0.29 0.18 0.12 0.11 0.11 0.13 0.15 0.22 0.30 0.12 0.09 0.14 0.10 0.12 0.15 0.14 0.16 0.16 0.15 0.18 0.21 0.22 0.23 0.24
0.57 0.56 0.58 0.65 0.64 0.61 0.60 0.57 0.52 0.56 0.53 0.48 0.45 0.33 0.30 0.40 0.19 0.15 0.28 0.32 0.30 0.25 0.12 0.10 0.08 0.09 0.08 0.11 0.14 0.18 0.12 0.12 0.12 0.12 0.11 0.10 0.07 0.07 0.06 0.06 0.06 0.07 0.10 0.15 0.19
0.56 0.56 0.57 0.59 0.64 0.62 0.58 0.56 0.52 0.46 0.46 0.45 0.42 0.27 0.32 0.33 0.16 0.15 0.25 0.27 0.25 0.20 0.13 0.12 0.09 0.08 0.07 0.08 0.08 0.10 0.09 0.09 0.09 0.08 0.09 0.07 0.06 0.08 0.06 0.06 0.07 0.07 0.08 0.10 0.11
0.57 0.56 0.56 0.58 0.57 0.58 0.59 0.52 0.48 0.42 0.37 0.32 0.31 0.35 0.23 0.25 0.12 0.16 0.23 0.22 0.20 0.17 0.12 0.10 0.08 0.07 0.07 0.06 0.08 0.06 0.07 0.07 0.07 0.08 0.08 0.08 0.09 0.08 0.09 0.09 0.10 0.11 0.12 0.11 0.11
0.57 0.56 0.56 0.57 0.57 0.54 0.54 0.50 0.46 0.41 0.38 0.31 0.27 0.27 0.21 0.15 0.15 0.19 0.20 0.17 0.16 0.15 0.11 0.09 0.08 0.08 0.06 0.08 0.08 0.07 0.08 0.08 0.09 0.10 0.10 0.11 0.09 0.10 0.10 0.11 0.12 0.12 0.12 0.12 0.14
0.58 0.58 0.57 0.57 0.56 0.54 0.49 0.46 0.43 0.39 0.38 0.32 0.29 0.23 0.17 0.13 0.19 0.20 0.18 0.16 0.15 0.14 0.12 0.11 0.10 0.10 0.09 0.08 0.08 0.09 0.09 0.09 0.10 0.10 0.11 0.10 0.11 0.12 0.12 0.13 0.13 0.14 0.14 0.14 0.15
0.61 0.60 0.59 0.57 0.53 0.52 0.47 0.44 0.41 0.36 0.36 0.30 0.25 0.21 0.17 0.16 0.21 0.19 0.18 0.16 0.17 0.15 0.12 0.13 0.14 0.11 0.11 0.09 0.11 0.09 0.08 0.10 0.10 0.11 0.11 0.13 0.11 0.11 0.14 0.15 0.14 0.15 0.16 0.16 0.17
0.61 0.61 0.59 0.53 0.52 0.49 0.45 0.42 0.37 0.35 0.31 0.27 0.24 0.22 0.16 0.21 0.21 0.17 0.18 0.16 0.17 0.17 0.15 0.15 0.16 0.14 0.12 0.12 0.10 0.09 0.09 0.07 0.10 0.12 0.13 0.13 0.10 0.14 0.16 0.15 0.14 0.15 0.16 0.16 0.17
0.61 0.61 0.58 0.51 0.50 0.47 0.43 0.41 0.36 0.33 0.29 0.26 0.24 0.21 0.15 0.21 0.17 0.19 0.18 0.14 0.15 0.16 0.16 0.16 0.15 0.12 0.12 0.08 0.08 0.08 0.05 0.07 0.08 0.13 0.13 0.14 0.11 0.13 0.16 0.16 0.16 0.16 0.17 0.17 0.18
0.63 0.62 0.57 0.53 0.50 0.47 0.42 0.37 0.33 0.32 0.28 0.26 0.23 0.19 0.17 0.16 0.18 0.18 0.19 0.16 0.13 0.14 0.13 0.13 0.13 0.10 0.09 0.07 0.05 0.05 0.05 0.06 0.08 0.12 0.14 0.13 0.12 0.13 0.15 0.15 0.16 0.16 0.17 0.18 0.18
0.62 0.62 0.56 0.53 0.51 0.45 0.38 0.35 0.30 0.28 0.26 0.22 0.21 0.18 0.18 0.21 0.20 0.18 0.18 0.15 0.13 0.11 0.09 0.12 0.10 0.08 0.09 0.09 0.08 0.07 0.07 0.07 0.10 0.14 0.13 0.12 0.11 0.10 0.12 0.15 0.16 0.17 0.16 0.16 0.17
0.62 0.58 0.57 0.50 0.50 0.45 0.41 0.34 0.34 0.33 0.24 0.26 0.25 0.22 0.21 0.22 0.15 0.17 0.19 0.13 0.12 0.09 0.11 0.11 0.09 0.11 0.11 0.10 0.08 0.07 0.06 0.08 0.10 0.15 0.14 0.11 0.09 0.11 0.13 0.15 0.16 0.16 0.15 0.15 0.16
0.61 0.57 0.55 0.52 0.47 0.45 0.42 0.39 0.43 0.37 0.24 0.25 0.25 0.23 0.20 0.20 0.16 0.15 0.17 0.15 0.12 0.10 0.10 0.09 0.09 0.12 0.10 0.08 0.07 0.07 0.06 0.08 0.09 0.14 0.14 0.11 0.10 0.09 0.13 0.16 0.16 0.17 0.17 0.17 0.17
0.62 0.57 0.57 0.55 0.46 0.44 0.41 0.45 0.47 0.41 0.23 0.24 0.23 0.23 0.20 0.19 0.15 0.19 0.19 0.16 0.13 0.10 0.11 0.10 0.12 0.10 0.09 0.07 0.08 0.06 0.09 0.09 0.10 0.12 0.10 0.11 0.06 0.08 0.12 0.13 0.14 0.16 0.17 0.18 0.19
0.62 0.57 0.56 0.52 0.46 0.43 0.44 0.50 0.47 0.41 0.19 0.25 0.23 0.27 0.22 0.16 0.17 0.15 0.21 0.17 0.12 0.12 0.12 0.09 0.10 0.10 0.08 0.08 0.09 0.08 0.09 0.08 0.09 0.12 0.11 0.11 0.09 0.09 0.11 0.11 0.13 0.16 0.18 0.20 0.22
0.63 0.57 0.56 0.52 0.51 0.50 0.51 0.50 0.43 0.30 0.21 0.23 0.24 0.21 0.19 0.19 0.19 0.18 0.17 0.18 0.17 0.13 0.13 0.11 0.14 0.12 0.10 0.10 0.11 0.12 0.08 0.07 0.09 0.10 0.09 0.10 0.09 0.09 0.10 0.11 0.14 0.16 0.19 0.22 0.22
0.66 0.59 0.57 0.56 0.48 0.56 0.53 0.43 0.32 0.26 0.26 0.23 0.22 0.22 0.19 0.18 0.17 0.17 0.16 0.15 0.12 0.10 0.10 0.11 0.10 0.12 0.12 0.10 0.11 0.11 0.07 0.05 0.05 0.07 0.08 0.12 0.10 0.11 0.12 0.13 0.15 0.17 0.20 0.22 0.22
0.68 0.61 0.59 0.60 0.58 0.58 0.49 0.38 0.28 0.28 0.24 0.26 0.24 0.22 0.19 0.18 0.17 0.16 0.15 0.14 0.16 0.14 0.11 0.09 0.07 0.09 0.12 0.11 0.09 0.10 0.09 0.05 0.03 0.04 0.07 0.11 0.09 0.11 0.13 0.15 0.17 0.21 0.22 0.21 0.22
0.69 0.59 0.58 0.61 0.60 0.56 0.44 0.34 0.30 0.28 0.27 0.25 0.24 0.21 0.19 0.19 0.18 0.16 0.15 0.14 0.16 0.15 0.10 0.09 0.08 0.11 0.13 0.13 0.12 0.09 0.08 0.11 0.07 0.08 0.06 0.08 0.10 0.13 0.14 0.14 0.18 0.19 0.19 0.20 0.23
0.63 0.56 0.56 0.63 0.61 0.52 0.43 0.34 0.32 0.33 0.31 0.28 0.23 0.22 0.19 0.19 0.18 0.16 0.14 0.16 0.15 0.16 0.17 0.13 0.09 0.11 0.11 0.14 0.13 0.11 0.13 0.07 0.08 0.05 0.04 0.06 0.08 0.10 0.12 0.14 0.16 0.18 0.19 0.22 0.24
0.63 0.53 0.58 0.64 0.58 0.49 0.40 0.37 0.35 0.36 0.33 0.29 0.26 0.24 0.22 0.20 0.19 0.16 0.15 0.16 0.17 0.15 0.17 0.15 0.13 0.10 0.11 0.09 0.08 0.11 0.09 0.10 0.10 0.08 0.06 0.06 0.07 0.13 0.12 0.15 0.16 0.18 0.21 0.23 0.25
0.61 0.53 0.62 0.63 0.51 0.47 0.41 0.39 0.39 0.36 0.35 0.33 0.30 0.27 0.24 0.22 0.20 0.17 0.15 0.15 0.18 0.17 0.14 0.17 0.14 0.09 0.08 0.11 0.13 0.13 0.11 0.10 0.07 0.06 0.08 0.08 0.08 0.12 0.15 0.16 0.18 0.20 0.22 0.24 0.26
0.63 0.60 0.65 0.62 0.49 0.45 0.43 0.41 0.40 0.36 0.34 0.33 0.29 0.29 0.28 0.23 0.19 0.18 0.17 0.19 0.18 0.17 0.15 0.17 0.13 0.08 0.08 0.11 0.13 0.10 0.11 0.12 0.11 0.10 0.07 0.06 0.07 0.13 0.15 0.16 0.20 0.21 0.23 0.25 0.25
0.66 0.59 0.61 0.58 0.53 0.48 0.43 0.40 0.38 0.40 0.36 0.35 0.32 0.32 0.27 0.23 0.22 0.19 0.18 0.18 0.19 0.18 0.21 0.22 0.14 0.10 0.07 0.07 0.09 0.08 0.10 0.11 0.10 0.07 0.07 0.07 0.08 0.11 0.14 0.17 0.20 0.22 0.24 0.24 0.25
0.66 0.57 0.60 0.52 0.49 0.47 0.44 0.42 0.39 0.37 0.38 0.36 0.34 0.31 0.27 0.22 0.20 0.19 0.20 0.18 0.18 0.20 0.19 0.18 0.12 0.12 0.11 0.10 0.10 0.09 0.09 0.09 0.08 0.08 0.07 0.07 0.08 0.11 0.15 0.19 0.21 0.23 0.24 0.24 0.24
0.61 0.58 0.55 0.50 0.49 0.45 0.44 0.41 0.39 0.38 0.36 0.35 0.34 0.32 0.29 0.25 0.22 0.20 0.20 0.19 0.16 0.19 0.18 0.19 0.13 0.13 0.09 0.09 0.09 0.08 0.09 0.08 0.09 0.08 0.08 0.08 0.09 0.15 0.18 0.23 0.23 0.24 0.23 0.22 0.23
0.68 0.65 0.59 0.50 0.46 0.44 0.42 0.40 0.39 0.39 0.38 0.37 0.37 0.34 0.30 0.29 0.27 0.26 0.25 0.23 0.21 0.19 0.17 0.17 0.14 0.12 0.08 0.09 0.08 0.06 0.07 0.08 0.08 0.09 0.09 0.07 0.09 0.15 0.19 0.22 0.23 0.23 0.22 0.23 0.24
Wind_Speed
9 9 9 9 9 9 10 10 10 10 10 10 11 13 14 13 16 20 23 25 25 26 27 27 25 24 23 24 26 26 27 30 31 32 33 36 37 36 38 40 39 39 41 41 43
8 8 8 8 8 9 10 11 11 11 10 10 12 15 15 14 14 22 25 26 26 27 26 27 26 26 25 27 27 28 29 30 31 33 36 37 36 35 33 35 37 37 38 41 42
7 8 8 8 8 9 10 11 11 11 11 11 12 15 16 15 12 22 28 28 27 28 27 28 27 26 26 28 30 30 30 31 33 34 34 33 32 29 31 31 32 34 36 37 38
7 8 8 9 9 9 10 10 11 11 12 13 12 12 19 16 15 25 29 28 28 28 29 29 29 27 28 30 31 30 31 32 33 33 31 29 27 27 28 31 29 31 31 32 34
7 8 9 9 9 9 10 10 11 10 11 13 14 14 17 18 20 28 29 28 28 28 30 29 30 30 29 31 31 31 33 33 33 32 28 27 24 25 26 24 24 23 26 31 33
7 8 9 9 10 10 10 10 11 10 11 12 12 15 18 17 23 29 28 28 29 29 30 31 31 30 30 31 32 34 33 34 32 29 27 23 23 23 18 20 21 25 27 27 29
8 8 9 10 10 9 10 10 11 11 12 12 12 15 21 19 25 32 29 29 29 29 30 31 33 32 33 31 34 32 33 32 26 28 24 23 23 17 22 24 25 26 24 23 21
8 9 9 10 10 8 10 10 11 11 12 13 14 15 17 21 26 31 31 28 29 29 30 31 32 32 35 33 32 33 30 32 28 26 20 22 22 26 25 26 25 22 20 20 19
9 10 9 10 9 8 9 9 9 11 13 13 16 15 18 22 27 32 30 29 29 30 31 31 32 34 35 33 30 32 34 33 29 24 23 21 30 25 26 23 19 18 18 19 19
10 10 10 10 9 9 9 10 12 12 12 12 20 15 21 24 26 34 31 30 30 30 30 32 32 34 36 36 33 38 35 31 29 27 22 30 28 28 22 20 17 17 17 19 20
10 10 9 10 9 9 9 11 12 12 15 13 18 18 21 25 23 33 32 28 30 30 31 33 34 36 37 35 34 37 36 32 29 23 30 24 26 20 18 12 13 14 16 18 19
9 10 8 9 10 10 11 12 12 11 10 13 18 21 21 24 24 34 33 28 31 33 33 31 34 36 36 34 38 38 37 30 26 26 27 20 21 14 13 11 12 14 17 18 20
9 10 8 8 10 12 12 12 11 11 9 14 20 21 24 24 24 33 35 30 31 34 34 32 34 36 35 36 41 41 29 31 32 31 16 20 11 10 10 13 14 15 17 18 20
9 9 10 9 10 13 13 12 12 12 10 18 21 22 25 23 24 32 35 30 30 33 32 31 35 35 36 37 42 38 33 35 32 19 15 17 13 10 11 16 17 17 20 22 26
9 10 11 11 12 13 13 12 12 12 11 19 20 22 24 24 26 32 34 30 31 31 32 34 35 36 37 39 42 34 39 35 22 13 14 12 12 11 14 17 19 22 24 26 32
8 11 11 12 13 14 13 12 12 12 13 17 20 24 23 26 25 30 31 32 29 29 33 33 33 34 36 41 38 41 38 25 17 12 11 10 14 14 15 20 24 25 26 32 36
8 10 13 13 13 14 13 13 12 13 16 19 21 23 23 27 26 30 31 33 33 34 36 35 32 35 38 40 35 41 38 27 18 14 12 10 16 16 20 22 24 28 32 38 38
9 10 13 13 13 13 13 13 13 14 16 18 21 22 23 29 25 30 29 29 33 34 32 35 32 36 40 37 37 36 33 26 22 18 19 19 12 16 19 21 25 31 39 41 42
9 10 12 14 13 14 13 13 12 14 16 21 22 21 22 25 27 28 28 28 30 34 33 33 31 34 35 37 35 34 32 28 24 17 14 13 18 22 17 24 31 40 43 44 45
10 11 12 14 13 13 13 11 12 14 16 18 20 22 23 27 27 28 29 26 29 31 32 31 32 31 35 33 33 32 32 27 24 18 15 17 22 18 24 30 41 43 45 48 46
11 11 12 13 13 13 12 12 13 14 16 18 20 22 23 25 26 25 27 26 29 30 31 31 30 32 34 32 34 31 30 29 24 17 14 18 17 19 26 38 45 46 48 50 49
11 12 13 12 12 12 12 12 13 14 16 18 20 21 23 25 24 23 26 26 27 30 31 30 30 33 33 33 31 31 30 29 25 18 16 18 19 22 31 44 45 47 52 51 48
11 12 12 12 11 11 11 12 14 15 17 18 19 21 23 24 23 23 25 27 26 30 29 29 29 34 30 30 30 30 31 28 26 21 18 18 19 30 44 46 44 51 52 51 48
11 11 11 11 11 10 11 12 14 16 16 18 20 22 23 23 21 23 25 26 28 28 28 28 29 28 30 34 36 35 34 32 26 23 21 22 40 42 45 46 50 53 52 52 48
12 11 12 12 12 11 12 13 14 16 17 18 20 21 22 22 23 22 25 27 26 26 27 29 29 31 33 36 33 33 32 31 25 25 22 33 35 40 42 48 52 54 54 53 49
12 12 12 12 11 12 13 14 15 16 16 18 20 21 20 21 22 25 25 25 25 25 29 28 29 34 33 31 30 31 30 28 29 32 28 29 34 33 44 47 50 53 54 52 49
13 13 13 13 12 13 14 14 15 16 17 19 21 21 21 23 25 26 27 25 25 26 27 28 31 33 29 35 31 28 30 29 36 35 28 26 33 42 45 47 52 55 53 51 53
Wind_Direction
54 52 48 44 42 35 28 21 14 9 5 5 9 5 357 353 355 1 1 350 345 342 340 338 337 334 330 325 322 314 307 305 305 304 300 296 291 285 281 275 271 265 263 258 260
47 42 39 36 32 24 20 16 14 13 12 12 7 2 355 351 352 4 353 349 346 344 342 341 337 334 330 327 325 320 313 314 311 306 301 298 293 289 283 280 274 268 263 262 261
39 35 30 24 19 15 13 13 14 14 12 4 1 6 4 357 357 352 349 348 346 344 342 341 337 336 335 332 330 325 320 316 310 308 305 301 295 290 287 281 276 272 270 266 261
33 28 22 17 12 10 9 12 11 14 15 13 5 1 6 357 356 348 347 347 347 346 346 344 342 338 337 335 331 326 324 319 316 313 310 305 300 293 286 283 281 278 271 265 265
25 19 14 12 9 6 6 6 5 7 6 3 7 0 359 6 360 349 348 349 349 349 351 346 349 342 340 336 332 332 327 322 318 316 310 307 299 297 292 289 287 283 278 272 267
16 10 8 6 5 5 5 4 4 5 1 359 2 5 3 3 353 353 351 350 351 351 352 352 347 345 342 338 337 331 327 324 323 319 313 308 304 302 297 298 290 292 288 280 274
12 7 5 3 1 4 6 7 9 9 6 6 1 356 9 4 354 353 353 353 352 350 350 348 350 346 340 338 337 333 331 328 326 324 317 314 305 295 298 299 296 293 291 286 279
8 5 3 2 2 7 7 11 12 16 9 6 358 0 358 356 356 356 353 353 353 351 349 348 347 345 345 339 339 338 334 333 330 324 318 316 306 306 302 302 296 294 291 286 281
9 7 5 2 7 8 8 11 10 4 3 7 0 354 356 351 353 355 353 352 350 350 350 347 345 347 346 343 341 341 334 330 331 324 320 316 312 310 309 301 294 292 291 286 282
9 7 7 7 12 10 13 13 10 352 352 352 3 354 357 350 351 353 353 353 350 346 346 348 347 348 350 350 343 337 337 333 328 327 322 314 311 317 315 301 293 293 295 291 285
2 4 6 10 10 9 7 356 345 353 13 16 2 359 351 350 351 355 353 348 350 352 349 350 351 350 348 348 344 337 332 327 325 329 328 322 318 328 336 324 304 301 307 303 292
358 2 3 11 9 360 353 351 349 350 8 3 357 357 352 351 350 356 355 353 353 354 348 347 351 347 345 345 343 340 333 333 330 326 325 325 321 333 348 342 335 330 317 310 303
7 7 5 2 2 1 357 355 354 351 352 352 354 353 352 351 354 353 355 352 353 353 351 351 348 346 347 346 346 342 338 335 325 326 329 327 318 327 337 334 331 328 330 325 316
12 10 8 357 355 354 354 353 352 350 342 349 351 353 351 350 353 354 355 352 352 350 349 349 348 348 348 347 347 342 342 332 326 324 328 340 320 315 327 328 327 328 328 326 323
8 6 3 1 354 352 350 350 349 347 346 348 350 348 352 357 347 353 354 352 353 349 348 349 349 350 349 348 346 342 337 333 332 319 324 335 321 314 318 326 329 327 326 324 325
352 357 352 349 354 352 350 349 347 347 349 348 347 348 349 353 351 349 354 355 351 349 352 350 349 350 349 345 348 345 341 346 337 326 322 337 336 315 323 328 328 328 325 325 325
335 345 350 348 347 348 349 347 344 357 345 346 346 347 348 348 349 351 353 359 358 351 353 348 350 351 350 348 351 352 352 350 345 333 327 324 324 311 320 323 326 328 326 327 326
326 330 344 346 344 345 344 342 358 344 345 345 344 343 348 349 349 350 351 354 358 354 348 352 350 353 352 354 349 354 357 357 343 334 320 317 316 330 327 327 329 329 327 325 325
316 323 333 339 339 340 339 351 343 342 340 341 340 343 347 348 346 347 354 352 353 355 354 350 348 350 353 353 354 353 355 353 342 328 323 323 326 320 338 333 332 330 329 327 326
309 314 325 332 333 336 342 342 338 340 341 342 345 347 343 345 347 350 352 351 352 352 351 351 345 352 352 353 357 355 353 351 351 340 330 325 324 323 336 338 334 333 330 329 326
307 307 318 325 328 335 338 338 336 339 340 342 342 340 341 342 344 345 348 348 349 351 352 351 350 352 348 355 352 353 354 353 347 338 331 332 333 339 333 335 334 332 331 329 326
304 304 314 317 322 330 331 334 334 335 338 339 340 340 340 341 341 343 345 345 347 349 349 353 349 347 351 353 355 354 354 352 349 345 318 317 321 334 337 333 332 331 330 329 326
306 306 311 314 318 324 324 329 330 332 331 336 338 339 341 341 341 342 342 345 344 346 349 353 352 348 355 355 354 351 351 347 342 332 311 316 321 329 330 332 331 331 331 330 329
304 306 312 318 321 321 319 321 326 329 330 334 336 338 340 340 340 341 342 344 344 345 347 349 349 347 343 339 342 342 342 343 341 339 320 308 315 328 331 333 333 333 332 331 330
305 302 305 308 315 318 319 319 324 325 328 330 334 332 338 340 340 340 341 341 345 347 348 348 346 345 338 337 340 341 345 347 345 334 326 319 320 326 332 333 333 333 333 332 331
293 296 302 304 306 309 312 311 315 323 324 328 330 335 333 335 335 337 340 341 343 346 345 348 346 348 348 355 351 346 352 351 344 337 322 323 323 334 333 334 335 336 335 334 334
287 293 296 298 301 304 306 311 313 320 319 324 328 332 329 328 331 331 331 331 331 338 344 346 347 348 349 350 352 355 353 351 343 338 332 332 332 338 338 339 340 339 340 340 337